Flag for Norway

Past Weather in Sandefjord, Norway — Yesterday and Last 2 Weeks

Now
59 °F

Passing clouds.


Feels Like: 59 °F
Forecast: 69 / 59 °F
Wind: No wind

Location: Torp

Current Time: Aug 7, 2020 at 12:10:33 am

Latest Report: Aug 6, 2020 at 11:20 pm


Visibility: 0 mi

Pressure: 30.18 "Hg

Humidity: 100%

Dew Point: 59 °F

Location of SandefjordLocation

Past Weather in Sandefjord — Graph

°F

Sandefjord Temperature Yesterday

Maximum temperature yesterday: 70 °F (at 2:20 pm)
Minimum temperature yesterday: 59 °F (at 3:50 am)
Average temperature yesterday: 64 °F

High & Low Weather Summary for the Past Weeks

 TemperatureHumidityPressure
High75 °F (Jul 31, 4:50 pm)100% (Jul 24, 12:20 am)30.18 "Hg (Jul 24, 12:20 am)
Low48 °F (Jul 23, 3:20 am)40% (Aug 3, 6:50 pm)29.47 "Hg (Jul 29, 5:20 am)
Average60 °F78%29.79 "Hg
* Reported Jul 22 9:20 pm — Aug 6 9:50 pm, Sandefjord. Weather by CustomWeather, © 2020

Note: Actual official high and low records may vary slightly from our data, if they occured in-between our weather recording intervals... More about our weather records

Sandefjord Weather History for the Previous 24 Hours

Scroll right to see more
 ConditionsComfort  
Time TempWeatherWind HumidityBarometerVisibility
9:50 pm
Thu, Aug 6
61 °FPassing clouds.No wind100%30.18 "HgN/A
9:20 pm63 °FSunny.3 mph94%30.15 "Hg10 mi
8:50 pm64 °FSunny.3 mph83%30.15 "Hg10 mi
8:20 pm64 °FSunny.2 mph83%30.15 "Hg10 mi
7:50 pm66 °FSunny.6 mph73%30.15 "Hg10 mi
7:20 pm68 °FSunny.7 mph60%30.15 "Hg10 mi
6:50 pm68 °FPassing clouds.6 mph64%30.15 "HgN/A
6:20 pm66 °FPassing clouds.6 mph64%30.15 "HgN/A
5:50 pm66 °FPassing clouds.8 mph68%30.15 "HgN/A
5:20 pm68 °FPassing clouds.7 mph69%30.15 "HgN/A
4:50 pm68 °FSunny.9 mph73%30.15 "Hg10 mi
4:20 pm68 °FPassing clouds.9 mph78%30.15 "HgN/A
3:50 pm68 °FPassing clouds.9 mph73%30.15 "HgN/A
3:20 pm68 °FScattered clouds.10 mph73%30.15 "HgN/A
2:20 pm70 °FScattered clouds.8 mph73%30.12 "HgN/A
1:50 pm68 °FScattered clouds.7 mph73%30.12 "HgN/A
1:20 pm68 °FScattered clouds.8 mph83%30.12 "HgN/A
12:50 pm66 °FPartly sunny.12 mph88%30.12 "HgN/A
12:20 pm64 °FMostly cloudy.12 mph94%30.12 "Hg6 mi
11:50 am64 °FPartly sunny.8 mph94%30.09 "Hg6 mi
11:20 am63 °FPartly sunny.9 mph100%30.09 "Hg5 mi
10:50 am61 °FPartly sunny.12 mph100%30.09 "Hg5 mi
10:20 am63 °FDrizzle. Dense fog.12 mph100%30.09 "Hg2 mi
9:50 am61 °FLow clouds.10 mph100%30.07 "Hg6 mi
8:50 am61 °FPartly sunny.12 mph100%30.07 "Hg6 mi
8:20 am61 °FPartly sunny.12 mph100%30.04 "Hg6 mi
7:50 am61 °FPartly sunny.10 mph100%30.04 "Hg6 mi
7:20 am61 °FBroken clouds.9 mph100%30.01 "Hg5 mi
6:50 am61 °FFog.10 mph100%30.01 "Hg3 mi
6:20 am61 °FRain. Fog.8 mph100%30.01 "HgN/A
5:50 am61 °FRain. Fog.9 mph100%29.98 "HgN/A
5:20 am61 °FMore clouds than sun.8 mph100%29.98 "Hg5 mi
4:50 am61 °FLow clouds.7 mph100%29.98 "Hg4 mi
4:20 am59 °FOvercast.5 mph100%29.98 "Hg4 mi
3:50 am59 °FPartly cloudy.7 mph100%29.98 "HgN/A
3:20 am61 °FLow clouds.6 mph100%29.95 "HgN/A
2:20 am61 °FMostly cloudy.9 mph100%29.92 "HgN/A
1:50 am61 °FPartly cloudy.7 mph100%29.92 "HgN/A
1:20 am61 °FLow clouds.12 mph100%29.92 "HgN/A
12:50 am61 °FLow clouds.12 mph100%29.92 "HgN/A
12:20 am61 °FLow clouds.12 mph100%29.89 "HgN/A
Weather by CustomWeather, © 2020

See weather overview